Simultaneous Nadir Overpasses (SNOs) Predictions

Prediction of SNOs between NOAA-19 and METOP-C Satellite Orbit:

Table of predicted SNOs for the next 14.0 days since TLE Epoch: 7/31/2020
Index Date (NOAA-19) Time (NOAA-19) Lat,Lon (NOAA-19) SZA (NOAA-19 ) Date (METOP-C) Time (METOP-C) Lat,Lon (METOP-C) SZA (METOP-C ) Distance(km) Time Diff (sec)
1 08/10/2020 18:22:30 -80.11, 107.78 114.44 08/10/2020 18:23:43 -80.12, 107.75 114.41 1.17 73
2 08/10/2020 19:13:29 80.11, -85.05 65.58 08/10/2020 19:14:24 80.12, -84.91 65.61 2.68 55
3 08/10/2020 20:04:31 -80.12, 82.14 114.42 08/10/2020 20:05:05 -80.10, 82.27 114.41 3.07 34
4 08/10/2020 20:55:29 80.10,-110.37 65.60 08/10/2020 20:55:46 80.10,-110.38 65.61 0.44 17
5 08/10/2020 21:46:31 -80.11, 56.81 114.39 08/10/2020 21:46:27 -80.09, 56.80 114.41 1.77 4
6 08/10/2020 22:37:29 80.09,-135.70 65.62 08/10/2020 22:37:08 80.09,-135.86 65.61 3.17 21
7 08/10/2020 23:28:31 -80.09, 31.48 114.37 08/10/2020 23:27:48 -80.11, 31.62 114.36 3.11 43
8 08/11/2020 00:19:30 80.10,-161.34 65.64 08/11/2020 00:18:30 80.08,-161.34 65.61 2.27 60
